作者Axwell (Axwell)
看板Baseball
标题[分享] 今日大谷翔平
时间Sat Jul 8 12:37:03 2023
打者翔平
https://i.imgur.com/D12xLhv.jpg
┌──┬─┬─┬─┬──┬─┬─┬─┬─┬─┬───┐
│ AVG│AB│ R│ H│ RBI│2B│3B│HR│BB│ K│ OPS │
├──┼─┼─┼─┼──┼─┼─┼─┼─┼─┼───┤
│.297│ 3│ 1│ 1│ 0 │ 0│ 0│ 0│ 1│ 1│1.031 │
└──┴─┴─┴─┴──┴─┴─┴─┴─┴─┴───┘
第一打席: GO (98.9 mph)
第二打席: 1B (104 mph)
第三打席: BB
第四打席: K
上半季倒数第二场比赛
今天四打席有两次上垒
击球初速还可以
可惜最後一打席被三球三振
最终天使4:11败给道奇
胜率回归五成
继续加油啦
--
※ 发信站: 批踢踢实业坊(ptt.cc), 来自: 219.68.237.142 (台湾)
※ 文章网址: https://webptt.com/cn.aspx?n=bbs/Baseball/M.1688791025.A.084.html
1F:推 LukeSkywaker: 凉 07/08 12:37
2F:推 aleezible: 天使今年又要掰了 07/08 12:37
4F:推 kauw: 天使一路向下,连败文 07/08 12:37
5F:推 mikilin23: 明天双响炮可以期待 07/08 12:37
6F:→ chan324: 慢慢调状态 07/08 12:37
7F:推 peiqua: 道奇碎片+ 07/08 12:37
8F:推 polanco: Last 7: .130/.286/.391 07/08 12:38
9F:推 RoastCorn: 凉平 07/08 12:38
10F:推 yuan0119: 水枪平 07/08 12:38
11F:→ chan324: 明星赛 可以休息一下 很有帮助 07/08 12:38
12F:推 maimai2063: 水枪噗滋噗滋 07/08 12:38
13F:→ payneblue: 明星赛好好休息拉 07/08 12:38
14F:→ Ferrari360: 打完这系列赛就直接去对面报到吧 07/08 12:38
15F:→ ils0104: 再一场就可以稍微休息了 加油啦 07/08 12:38
16F:→ kauw: 输到7月底老板还不交易也是佩服他了 07/08 12:38
17F:推 aya28666888: 挑战14连败纪录 07/08 12:38
18F:→ philip65: 小凉 07/08 12:38
19F:推 YiMaple: 天使没人保护大谷 07/08 12:39
20F:推 oceanman0704: 跟水手交叉罗 07/08 12:39
21F:→ kauw: 没有鳟鱼保护全垒打产量便秘了 07/08 12:39
22F:推 diabolica: 七月凉平 07/08 12:39
23F:→ mikilin23: 每年都在5成抽插....年年展望明年总冠军QQQ 07/08 12:39
24F:→ chyng1202: 先好好养伤啦 07/08 12:40
25F:推 Spade: 与外卡渐行渐远的天使 07/08 12:40
26F:推 TokyoHard: 今年至少撑到明星赛了,给各牡蛎 07/08 12:40
27F:推 octopus4406: 加油啦 把状态调好 07/08 12:40
28F:推 a10141013: 手有伤 要打全垒打变难 07/08 12:40
29F:→ kauw: 天使这种状态大谷先发胜投难拿吞败投比较快 07/08 12:40
30F:推 thomasgili: 转队了啦 天使没前途 07/08 12:40
31F:推 boy50292: 天使惨不忍睹 明年去道奇吧 纬来道奇好看多了 07/08 12:40
32F:→ aya28666888: 跟保护没关系吧 大谷很多红中球都没掌握好 近况超低 07/08 12:41
33F:→ aya28666888: 潮 07/08 12:41
34F:推 kansakiraru: 没大哥我觉得翔平全垒打应该40支左右 07/08 12:41
35F:推 RicFlair: 笑死都笑不出来了 07/08 12:41
36F:推 ils0104: 就手指有伤啊.... 07/08 12:41
37F:推 KKwilliam: 阿不会直接看道奇比赛就好 那麽好看每天追阿 07/08 12:41
38F:推 a2350221: 翔平加油 今天还ok 07/08 12:42
39F:推 likeyouuu: 天使可以上架大谷了 多少拿点东西回来 lol 07/08 12:43
40F:→ airswalker: 凉 07/08 12:43
41F:→ Spade: 天使打定主意不交易啊,今年没换新秀+明年大谷不在 落得两 07/08 12:43
42F:→ Spade: 头空 07/08 12:43
43F:→ a10141013: 大谷投球常常受伤 难道没办法解决? 07/08 12:44
44F:→ polanco: 常常受伤?两年半来就这次特别严重吧 07/08 12:44
45F:推 apestage: HR消失了 07/08 12:45
46F:推 certifi: 回到高中生的水平了 07/08 12:45
47F:推 aya28666888: 如果今年没季後大谷还跟天屎续约那真的不知道该说啥 07/08 12:45
48F:→ aya28666888: 了.. 07/08 12:45
49F:→ polanco: 再往前都要回推到开TJ那时候了 07/08 12:45
50F:推 myeunji: 球队输球的氛围也会连带影响球员的表现,只能说大谷七月 07/08 12:45
51F:→ myeunji: 不在状态,加上球队氛围,下半季喔.... 07/08 12:45
52F:推 Lawser1934: 天使88 07/08 12:46
53F:→ h1y2c3y2h1: 木屐 : 来当我二弟吧 07/08 12:46
54F:推 kiss7938: 六月处男尻法还以为asg前能破33只,下场要双响才能平了 07/08 12:46
55F:推 fairwarning: 加油啦 07/08 12:47
56F:→ pikaaco: 今天还行 07/08 12:48
57F:推 leeyeah: 6月打太多了 进入贤者翔平模式 07/08 12:49
58F:→ kauw: 大谷留天使就好笑了问题老板拿不出那麽多钱吧?降价友情价 07/08 12:49
59F:→ kauw: ? 07/08 12:49
60F:推 yankees733: 大谷今天看对面道奇虐自家天使 07/08 12:50
61F:→ kauw: 天使其实对大谷不错让他玩二刀流玩个开心 07/08 12:50
62F:→ sarahchou: 我觉得大谷今天有比前两场好一点了耶 07/08 12:51
63F:推 pinky841118: 今天状况看起来好很多了,明天再继续努力! 07/08 12:51
64F:推 cplzgr: 原来是回归5成QQ 07/08 12:52
65F:推 onepiece2041: 凉QQ 07/08 12:52
66F:→ william80730: 水泡多少影响挥棒吧 还好明星赛可以休一下 07/08 12:52
67F:推 pennyhsieh: 翔平慢慢调整吧,恢复健康最重要 07/08 12:53
68F:推 pinky841118: 大谷没有很常受伤啦,只有这次比较严重一点。因为之 07/08 12:53
69F:→ pinky841118: 前指甲已经裂开还没完全好,就又投教士,然後就...又 07/08 12:53
70F:→ pinky841118: 裂开了 07/08 12:53
71F:推 lucian5566: 这是刚参加完全垒打大赛吗? 07/08 12:54
72F:推 zhonghui: 公务员 07/08 12:54
75F:推 koj: 笑死,暑假就开始偷懒了 07/08 12:55
76F:→ yutan0802: 前天这麽痛欸 今天比较好了 加油 07/08 12:55
78F:推 yt010004: 天使战绩刚好只赢过美联4支重建球队而已了 07/08 12:57
79F:推 chyng1202: 大谷BP面试中 07/08 12:58
80F:推 Gloire: 明天双响炮 07/08 12:58
81F:→ ils0104: 哇!高层都到了欸 07/08 13:00
82F:推 rockroddick: 去对面问一下道奇防护员指甲裂开涂什麽比较有效不过 07/08 13:02
83F:→ rockroddick: 敏 07/08 13:02
84F:推 Vram: 挖勒 七月低潮 07/08 13:02
85F:推 hsgreent: 100H达阵 转体挥棒力量还是在 但跟球的节奏好像很容易被 07/08 13:07
86F:→ hsgreent: 破坏的感觉 07/08 13:08
87F:推 lxf: 天使喜欢当盘子 07/08 13:08
88F:推 ctes940008: 好凉 07/08 13:11
89F:推 vapour1001: 七月没HR了,翔平凉凉的 07/08 13:13
90F:推 adwn: 离季後赛越来越远了 07/08 13:14
91F:推 terry1043: 笑死,没力了 07/08 13:15
92F:推 LEEWY: 转队了啦,现场交易走到对面休息室去吧 07/08 13:16
93F:推 fp737: 没差 要休息了 07/08 13:21
94F:→ s4511981: 道奇再用点力 明年就能当队友了 07/08 13:22
95F:推 sixsix666: 原来这边七月底了啊 07/08 13:23
96F:推 girafa: 加油 07/08 13:25
97F:推 killua0209: 大谷投球最好常常受伤,顶多起水泡,只是这次是指甲裂 07/08 13:32
98F:→ killua0209: 开 07/08 13:32
99F:推 tn1983: 道奇准备好了 07/08 13:34
100F:推 asidy: 笑死....七月凉平 07/08 13:35
101F:推 sustto: 凉 07/08 13:40
102F:推 silentsky555: 好像累了欸 07/08 13:42
103F:推 ilks2334: 天使差不多了 07/08 13:43
104F:推 geniusw: 大谷掰 07/08 13:52
105F:→ abc5555990: 打击不振 投球继续爆的话 MVP估计要飞了 07/08 13:54
106F:推 zyic: 一路南下 07/08 13:57
107F:推 chan184966: 大谷加油 07/08 14:03
108F:推 befly10015: 大谷难得赛前打击 是在像高层证明什麽吗XD 07/08 14:03
109F:推 kikiyaxx: 加油啦 07/08 14:06
110F:推 TanyaVonDeg: 可悲烂队 07/08 14:06
111F:推 jympin: 好了啦 加入道奇吧 07/08 14:17
112F:推 vltw5v: 快去道奇吧 07/08 14:18
113F:推 CruiseTom: 没全垒打 惨 07/08 14:21
114F:推 aray0625: 一直输球还是有5成胜率,但想看大谷打季後赛啊,天使下 07/08 14:21
115F:→ aray0625: 半季加把劲 07/08 14:21
116F:推 cheng31507: 快离开天使吧 太恐怖了 07/08 14:42
117F:推 DaDaDaLa: 小枪凉平 07/08 14:46
118F:推 TenRings: 天使电梯向下 07/08 14:51
119F:推 marginal5566: 真的想继续在天使10年吗 07/08 14:52
120F:推 chenchen0611: 道奇高层都来,在面试了 07/08 15:02
121F:推 kauw: 内文:指甲没好?看我干嘛是他自己要投的 07/08 15:15
122F:推 kenslc199: 凉平准备好去躲人了 07/08 15:29
123F:推 payneblue: 外卡越来越远 07/08 15:43
124F:推 k22941920: 好久没全垒打了 07/08 16:20
125F:推 helacell: 明天加油~ 07/08 16:22
126F:推 WindSpread: 没了 指望太空人发病很难 这打线伤一堆 欧哈皮 Urshe 07/08 16:25
127F:→ WindSpread: la 还有大哥也下去了 07/08 16:25
128F:→ david7479241: 凉到要感冒了 07/08 18:26
129F:推 Astromancer: 凉,七月凉平 07/08 18:56
130F:推 dear520168: 七月凉平 季後赛又崩了 进不去 07/08 19:14
131F:推 paulleeMO: 可以回日本了 07/08 23:17
132F:→ Astromancer: 什麽日本?富邦收好吗 07/08 23:54
133F:推 cs0350679: 为下一个东家面子做足 笑死 07/09 00:13
134F:推 ericbest110: 每次大家看衰的时候就会迎来爆发,看来明天凉凉 07/09 01:16
135F:推 ks22523: 凉 07/09 22:38